Weather History for KCMD - February, 2014

Change the Weather History Date:

Thursday, February 27, 2014

  Actual Average Record
Temperature  
Mean Temperature 31 °F -  
Max Temperature 45 °F - - ()
Min Temperature 17 °F - - ()
Degree Days  
Heating Degree Days 34    
Moisture  
Dew Point 14 °F    
Average Humidity 54    
Maximum Humidity 84    
Minimum Humidity 29    
Precipitation  
Precipitation 0.00 in - - ()
Sea Level Pressure  
Sea Level Pressure 30.04 in    
Wind  
Wind Speed 3 mph (NW)    
Max Wind Speed 10 mph    
Max Gust Speed -    
Visibility 10 miles    
Events      
Averages and records for this station are not official NWS values.
T = Trace of Precipitation, MM = Missing Value Source: NWS Daily Summary

Daily Weather History Graph

Daily Weather History Graph

Search for Another Location

Airport or City:

Trip Planner

Search our weather history database for the weather conditions in past years. The results will help you decide how hot, cold, wet, or windy it might be!

Date:

Astronomy

Feb. 27, 2014 Rise Set
Actual Time 6:18 AM CST 5:41 PM CST
Civil Twilight 5:53 AM CST 6:07 PM CST
Nautical Twilight 5:24 AM CST 6:36 PM CST
Astronomical Twilight 4:55 AM CST 7:05 PM CST
Moon 4:47 AM CST (2/27) 4:09 PM CST (2/27)
Length of Visible Light 12h 13m
Length of Day
11h 23m
Waning Crescent, 4% of the Moon is Illuminated
Feb 27
Waning Crescent
Mar 1
New
Mar 8
First Quarter
Mar 16
Full
Mar 23
Last Quarter

Hourly Weather History & Observations

Time (CST) Temp. Windchill Dew Point Humidity Pressure Visibility Wind Dir Wind Speed Gust Speed Precip Events Conditions
12:15 AM 23.5 °F - 11.1 °F 59% 30.03 in 10.0 mi Calm Calm - N/A   Clear
12:35 AM 23.0 °F - 11.1 °F 60% 30.03 in 10.0 mi Calm Calm - N/A   Clear
12:55 AM 23.2 °F 16.0 °F 10.6 °F 59% 30.03 in 10.0 mi NW 5.8 mph - N/A   Clear
1:15 AM 23.4 °F 17.4 °F 10.4 °F 58% 30.03 in 10.0 mi NW 4.6 mph - N/A   Clear
1:35 AM 23.0 °F 18.4 °F 10.2 °F 58% 30.03 in 10.0 mi NW 3.5 mph - N/A   Clear
1:55 AM 22.8 °F 16.7 °F 9.7 °F 57% 30.03 in 10.0 mi NW 4.6 mph - N/A   Clear
2:15 AM 22.3 °F 16.1 °F 9.5 °F 58% 30.03 in 10.0 mi NW 4.6 mph - N/A   Clear
2:35 AM 21.7 °F 17.0 °F 9.7 °F 60% 30.03 in 10.0 mi WNW 3.5 mph - N/A   Clear
2:55 AM 21.2 °F - 10.2 °F 63% 30.03 in 10.0 mi Calm Calm - N/A   Clear
3:15 AM 20.3 °F - 10.6 °F 66% 30.03 in 10.0 mi Calm Calm - N/A   Clear
3:35 AM 20.1 °F - 10.9 °F 68% 30.03 in 10.0 mi Calm Calm - N/A   Clear
3:55 AM 19.9 °F - 10.8 °F 68% 30.03 in 10.0 mi Calm Calm - N/A   Clear
4:15 AM 19.6 °F - 10.9 °F 69% 30.03 in 10.0 mi Calm Calm - N/A   Clear
4:35 AM 19.2 °F - 11.8 °F 73% 30.03 in 10.0 mi Calm Calm - N/A   Clear
4:55 AM 18.7 °F - 10.6 °F 71% 30.03 in 10.0 mi Calm Calm - N/A   Clear
5:15 AM 18.5 °F - 11.5 °F 74% 30.04 in 10.0 mi Calm Calm - N/A   Clear
5:35 AM 19.0 °F - 10.9 °F 71% 30.04 in 10.0 mi Calm Calm - N/A   Clear
5:55 AM 18.7 °F - 10.4 °F 70% 30.04 in 10.0 mi Calm Calm - N/A   Clear
6:15 AM 18.5 °F - 10.6 °F 71% 30.05 in 10.0 mi Calm Calm - N/A   Clear
6:35 AM 17.6 °F - 11.5 °F 77% 30.05 in 10.0 mi Calm Calm - N/A   Clear
6:55 AM 18.1 °F - 12.4 °F 78% 30.06 in 10.0 mi Calm Calm - N/A   Clear
7:15 AM 20.7 °F - 11.7 °F 68% 30.06 in 10.0 mi Calm Calm - N/A   Clear
7:35 AM 22.6 °F - 10.6 °F 60% 30.07 in 10.0 mi Calm Calm - N/A   Clear
7:55 AM 24.6 °F - 10.2 °F 54% 30.07 in 10.0 mi Calm Calm - N/A   Clear
8:15 AM 26.1 °F 20.5 °F 10.4 °F 52% 30.08 in 10.0 mi NW 4.6 mph - N/A   Clear
8:35 AM 28.0 °F 22.8 °F 11.5 °F 50% 30.08 in 10.0 mi NNW 4.6 mph - N/A   Clear
8:55 AM 28.8 °F 20.9 °F 11.3 °F 48% 30.08 in 10.0 mi NNW 8.1 mph - N/A   Clear
9:15 AM 29.8 °F 23.9 °F 11.5 °F 46% 30.08 in 10.0 mi NW 5.8 mph - N/A   Clear
9:35 AM 31.1 °F 23.7 °F 11.7 °F 45% 30.08 in 10.0 mi NNW 8.1 mph - N/A   Clear
9:55 AM 32.0 °F 24.2 °F 11.7 °F 43% 30.09 in 10.0 mi WNW 9.2 mph - N/A   Clear
10:15 AM 33.6 °F 27.5 °F 11.7 °F 40% 30.08 in 10.0 mi NW 6.9 mph - N/A   Clear
10:35 AM 34.9 °F 29.0 °F 11.8 °F 39% 30.08 in 10.0 mi NW 6.9 mph - N/A   Clear
10:55 AM 36.1 °F 31.4 °F 11.3 °F 36% 30.07 in 10.0 mi NNW 5.8 mph - N/A   Clear
11:15 AM 37.2 °F 32.6 °F 10.9 °F 34% 30.07 in 10.0 mi North 5.8 mph - N/A   Clear
11:35 AM 38.1 °F 34.6 °F 12.2 °F 35% 30.06 in 10.0 mi NW 4.6 mph - N/A   Clear
11:55 AM 39.0 °F 33.4 °F 13.5 °F 35% 30.06 in 10.0 mi NW 8.1 mph - N/A   Clear
12:15 PM 39.9 °F 33.9 °F 14.0 °F 35% 30.04 in 10.0 mi WNW 9.2 mph - N/A   Clear
12:35 PM 40.3 °F 37.1 °F 14.5 °F 35% 30.04 in 10.0 mi WSW 4.6 mph - N/A   Clear
12:55 PM 42.1 °F 37.7 °F 16.0 °F 35% 30.03 in 10.0 mi NNW 6.9 mph - N/A   Clear
1:15 PM 42.8 °F 37.5 °F 16.3 °F 34% 30.02 in 10.0 mi NNW 9.2 mph - N/A   Clear
1:35 PM 43.3 °F 37.7 °F 15.3 °F 32% 30.02 in 10.0 mi NW 10.4 mph - N/A   Clear
1:55 PM 43.5 °F 39.4 °F 14.5 °F 31% 30.01 in 10.0 mi NW 6.9 mph - N/A   Clear
2:15 PM 43.7 °F 42.1 °F 14.0 °F 30% 30.02 in 10.0 mi NW 3.5 mph - N/A   Clear
2:35 PM 44.4 °F 39.5 °F 14.4 °F 30% 30.01 in 10.0 mi North 9.2 mph - N/A   Clear
2:50 PM 44.6 °F 40.2 °F 15.1 °F 30% 30.01 in 10.0 mi NNW 8.1 mph - N/A   Clear
3:15 PM 44.8 °F 41.6 °F 14.7 °F 30% 30.01 in 10.0 mi NW 5.8 mph - N/A   Clear
3:35 PM 45.1 °F 42.0 °F 14.9 °F 30% 30.01 in 10.0 mi WNW 5.8 mph - N/A   Clear
3:55 PM 45.1 °F 42.0 °F 14.4 °F 29% 30.01 in 10.0 mi NNW 5.8 mph - N/A   Clear
4:15 PM 44.6 °F 40.7 °F 14.0 °F 29% 30.01 in 10.0 mi NNW 6.9 mph - N/A   Clear
4:35 PM 44.2 °F 41.8 °F 14.2 °F 30% 30.01 in 10.0 mi NW 4.6 mph - N/A   Clear
4:55 PM 43.9 °F 40.5 °F 13.6 °F 29% 30.01 in 10.0 mi NW 5.8 mph - N/A   Clear
5:15 PM 43.0 °F 41.3 °F 14.2 °F 31% 30.01 in 10.0 mi WNW 3.5 mph - N/A   Clear
5:35 PM 41.2 °F - 14.9 °F 34% 30.01 in 10.0 mi Calm Calm - N/A   Clear
5:55 PM 39.2 °F - 16.0 °F 39% 30.01 in 10.0 mi Calm Calm - N/A   Clear
6:15 PM 36.1 °F - 17.6 °F 47% 30.02 in 10.0 mi Calm Calm - N/A   Clear
6:35 PM 34.3 °F - 19.6 °F 55% 30.01 in 10.0 mi Calm Calm - N/A   Clear
6:55 PM 32.7 °F - 19.6 °F 58% 30.02 in 10.0 mi Calm Calm - N/A   Clear
7:15 PM 32.2 °F - 19.9 °F 61% 30.02 in 10.0 mi Calm Calm - N/A   Clear
7:30 PM 30.6 °F - 19.6 °F 64% 30.02 in 10.0 mi Calm Calm - N/A   Clear
7:55 PM 29.1 °F - 20.7 °F 71% 30.02 in 10.0 mi Calm Calm - N/A   Clear
8:15 PM 29.5 °F - 19.9 °F 68% 30.03 in 10.0 mi Calm Calm - N/A   Clear
8:35 PM 29.3 °F - 19.8 °F 68% 30.04 in 10.0 mi Calm Calm - N/A   Clear
8:55 PM 28.2 °F - 19.6 °F 70% 30.04 in 10.0 mi Calm Calm - N/A   Clear
9:15 PM 27.7 °F - 18.7 °F 69% 30.05 in 10.0 mi Calm Calm - N/A   Clear
9:35 PM 27.7 °F - 20.1 °F 73% 30.04 in 10.0 mi Calm Calm - N/A   Clear
9:55 PM 27.3 °F - 20.1 °F 74% 30.05 in 10.0 mi Calm Calm - N/A   Clear
10:15 PM 27.1 °F - 20.3 °F 75% 30.05 in 10.0 mi Calm Calm - N/A   Clear
10:35 PM 26.4 °F - 19.6 °F 75% 30.05 in 10.0 mi Calm Calm - N/A   Clear
10:55 PM 25.7 °F - 21.4 °F 84% 30.05 in 10.0 mi Calm Calm - N/A   Clear
11:15 PM 26.2 °F - 19.9 °F 77% 30.05 in 10.0 mi Calm Calm - N/A   Clear
11:35 PM 25.3 °F - 20.3 °F 81% 30.04 in 10.0 mi Calm Calm - N/A   Clear
11:55 PM 24.8 °F - 20.5 °F 84% 30.05 in 10.0 mi Calm Calm - N/A   Clear